TimeEDT,TemperatureF,Dew PointF,Humidity,Sea Level PressureIn,VisibilityMPH,Wind Direction,Wind SpeedMPH,Gust SpeedMPH,PrecipitationIn,Events,Conditions,WindDirDegrees,DateUTC
12:16 AM,60.1,60.1,100,30.04,3.0,Calm,Calm,-,N/A,,Clear,0,2013-06-23 04:16:00
12:36 AM,59.5,59.5,100,30.04,2.0,Calm,Calm,-,N/A,,Mist,0,2013-06-23 04:36:00
12:56 AM,59.9,59.9,100,30.04,2.5,Calm,Calm,-,N/A,,Mist,0,2013-06-23 04:56:00
1:16 AM,59.4,59.4,100,30.03,1.2,Calm,Calm,-,N/A,,Mist,0,2013-06-23 05:16:00
1:36 AM,59.9,59.9,100,30.01,2.5,ESE,3.5,-,N/A,,Mist,110,2013-06-23 05:36:00
1:56 AM,60.1,60.1,100,30.00,2.5,ESE,4.6,-,N/A,,Mist,120,2013-06-23 05:56:00
2:16 AM,60.4,60.4,100,30.00,2.5,SE,3.5,-,N/A,,Mist,140,2013-06-23 06:16:00
2:36 AM,60.4,60.4,100,30.01,2.0,SSE,3.5,-,N/A,,Mist,150,2013-06-23 06:36:00
2:56 AM,60.6,60.6,100,30.01,2.0,SE,3.5,-,N/A,,Overcast,140,2013-06-23 06:56:00
3:16 AM,61.0,61.0,100,30.00,2.0,SE,3.5,-,N/A,,Overcast,130,2013-06-23 07:16:00
3:36 AM,60.4,60.4,100,30.02,0.8,SSE,9.2,-,N/A,,Overcast,160,2013-06-23 07:36:00
3:56 AM,57.6,57.6,100,30.01,0.2,SE,4.6,-,N/A,Fog,Fog,130,2013-06-23 07:56:00
4:16 AM,57.6,57.6,100,30.01,0.5,SE,4.6,-,N/A,Fog,Fog,140,2013-06-23 08:16:00
4:36 AM,57.6,57.6,100,30.01,0.5,SSE,3.5,-,N/A,Fog,Fog,150,2013-06-23 08:36:00
4:56 AM,57.6,57.6,100,30.01,0.5,Calm,Calm,-,N/A,Fog,Fog,0,2013-06-23 08:56:00
5:16 AM,58.1,58.1,100,30.01,0.5,Calm,Calm,-,N/A,Fog,Fog,0,2013-06-23 09:16:00
5:36 AM,58.3,58.3,100,30.00,0.2,SE,3.5,-,N/A,Fog,Fog,130,2013-06-23 09:36:00
5:56 AM,58.5,58.5,100,29.98,0.2,ESE,4.6,-,N/A,Fog,Fog,120,2013-06-23 09:56:00
6:16 AM,59.0,59.0,100,29.97,0.8,ESE,4.6,-,N/A,,Overcast,110,2013-06-23 10:16:00
6:36 AM,59.4,59.4,100,29.98,2.0,ESE,5.8,-,N/A,,Overcast,120,2013-06-23 10:36:00
6:56 AM,59.9,59.9,100,29.98,2.5,ESE,9.2,-,N/A,,Overcast,120,2013-06-23 10:56:00
7:16 AM,60.3,60.3,100,29.98,3.0,SE,5.8,-,N/A,,Overcast,130,2013-06-23 11:16:00
7:36 AM,60.8,60.8,100,29.98,4.0,SE,4.6,-,N/A,,Overcast,130,2013-06-23 11:36:00
7:56 AM,60.4,60.4,100,29.97,5.0,SE,6.9,-,N/A,,Overcast,130,2013-06-23 11:56:00
8:16 AM,60.4,60.4,100,29.97,7.0,SE,5.8,-,N/A,,Overcast,140,2013-06-23 12:16:00
8:36 AM,61.3,61.3,100,29.97,10.0,ESE,5.8,-,N/A,,Overcast,120,2013-06-23 12:36:00
8:56 AM,61.3,61.3,100,29.97,10.0,SE,5.8,-,N/A,,Overcast,130,2013-06-23 12:56:00
9:16 AM,61.2,61.0,99,29.98,10.0,SE,5.8,-,N/A,,Overcast,140,2013-06-23 13:16:00
9:36 AM,61.3,61.0,99,29.98,10.0,Calm,Calm,-,N/A,,Overcast,0,2013-06-23 13:36:00
9:56 AM,61.5,60.8,97,29.99,10.0,SSE,4.6,-,N/A,,Overcast,150,2013-06-23 13:56:00
10:16 AM,62.1,61.2,97,29.98,10.0,SE,4.6,-,N/A,,Overcast,140,2013-06-23 14:16:00
10:36 AM,63.1,61.5,94,29.97,10.0,ESE,6.9,-,N/A,,Overcast,110,2013-06-23 14:36:00
10:56 AM,64.0,61.7,92,29.98,10.0,SSE,5.8,-,N/A,,Overcast,150,2013-06-23 14:56:00
11:16 AM,61.9,60.1,94,29.99,10.0,SSE,9.2,-,N/A,,Overcast,150,2013-06-23 15:16:00
11:36 AM,60.3,59.2,96,29.98,10.0,SSE,9.2,-,N/A,,Overcast,150,2013-06-23 15:36:00
11:56 AM,62.1,60.1,93,29.96,10.0,SE,6.9,-,N/A,,Overcast,130,2013-06-23 15:56:00
12:16 PM,63.0,60.3,91,29.98,10.0,South,5.8,-,N/A,,Overcast,170,2013-06-23 16:16:00
12:36 PM,62.4,59.7,91,29.98,10.0,South,5.8,-,N/A,,Overcast,180,2013-06-23 16:36:00
12:56 PM,62.6,59.9,91,29.98,10.0,South,6.9,-,N/A,,Overcast,180,2013-06-23 16:56:00
1:16 PM,63.5,60.4,90,29.97,10.0,SSE,3.5,-,N/A,,Overcast,150,2013-06-23 17:16:00
1:36 PM,64.4,60.8,88,29.97,10.0,SE,4.6,-,N/A,,Overcast,140,2013-06-23 17:36:00
1:56 PM,64.6,61.2,89,29.97,10.0,Calm,Calm,-,N/A,,Overcast,0,2013-06-23 17:56:00
2:16 PM,67.1,62.2,84,29.97,10.0,Calm,Calm,-,N/A,,Overcast,0,2013-06-23 18:16:00
2:36 PM,69.8,64.0,82,29.97,10.0,West,4.6,-,N/A,,Mostly Cloudy,280,2013-06-23 18:36:00
2:56 PM,69.1,63.9,83,29.95,10.0,Calm,Calm,-,N/A,,Scattered Clouds,0,2013-06-23 18:56:00
3:16 PM,69.8,64.0,82,29.95,10.0,NW,3.5,-,N/A,,Clear,320,2013-06-23 19:16:00
3:36 PM,70.5,64.4,81,29.95,10.0,Calm,Calm,-,N/A,,Clear,0,2013-06-23 19:36:00
3:56 PM,71.1,65.1,81,29.95,10.0,WSW,4.6,-,N/A,,Clear,240,2013-06-23 19:56:00
4:16 PM,69.8,64.6,83,29.94,10.0,Calm,Calm,-,N/A,,Clear,0,2013-06-23 20:16:00
4:36 PM,67.5,63.0,85,29.93,10.0,SSE,4.6,-,N/A,,Clear,160,2013-06-23 20:36:00
4:55 PM,67.5,62.4,84,29.92,10.0,South,4.6,-,N/A,,Clear,170,2013-06-23 20:55:00
5:16 PM,66.7,61.9,84,29.93,10.0,Calm,Calm,-,N/A,,Clear,0,2013-06-23 21:16:00
5:36 PM,67.8,62.4,83,29.92,10.0,ESE,3.5,-,N/A,,Clear,120,2013-06-23 21:36:00
5:56 PM,70.5,63.9,79,29.90,10.0,Calm,Calm,-,N/A,,Clear,0,2013-06-23 21:56:00
6:16 PM,71.6,64.6,78,29.90,10.0,Calm,Calm,-,N/A,,Clear,0,2013-06-23 22:16:00
6:36 PM,72.7,64.9,77,29.89,10.0,ESE,3.5,-,N/A,,Clear,120,2013-06-23 22:36:00
6:56 PM,73.6,65.5,76,29.88,10.0,ESE,4.6,-,N/A,,Clear,120,2013-06-23 22:56:00
7:15 PM,73.9,65.8,76,29.88,10.0,SSE,5.8,-,N/A,,Clear,150,2013-06-23 23:15:00
7:36 PM,72.9,65.5,78,29.87,10.0,South,3.5,-,N/A,,Clear,170,2013-06-23 23:36:00
7:56 PM,70.0,63.9,81,29.89,10.0,SSE,8.1,-,N/A,,Clear,160,2013-06-23 23:56:00
8:16 PM,66.2,63.5,91,29.90,7.0,SSE,8.1,-,N/A,,Clear,150,2013-06-24 00:16:00
8:36 PM,65.3,63.5,94,29.90,7.0,SE,5.8,-,N/A,,Clear,140,2013-06-24 00:36:00
8:56 PM,65.1,63.7,95,29.90,7.0,SSE,4.6,-,N/A,,Clear,150,2013-06-24 00:56:00
9:16 PM,64.9,63.7,96,29.90,5.0,Calm,Calm,-,N/A,,Clear,0,2013-06-24 01:16:00
9:36 PM,64.9,63.9,96,29.91,5.0,Calm,Calm,-,N/A,,Clear,0,2013-06-24 01:36:00
9:56 PM,64.6,63.9,98,29.91,5.0,Calm,Calm,-,N/A,,Clear,0,2013-06-24 01:56:00
10:16 PM,64.6,64.2,99,29.91,7.0,Calm,Calm,-,N/A,,Clear,0,2013-06-24 02:16:00
10:36 PM,64.4,64.0,99,29.91,5.0,Calm,Calm,-,N/A,,Clear,0,2013-06-24 02:36:00
10:56 PM,64.9,64.6,99,29.91,7.0,SE,3.5,-,N/A,,Clear,130,2013-06-24 02:56:00
11:16 PM,65.5,64.4,96,29.90,7.0,SSE,4.6,-,N/A,,Clear,160,2013-06-24 03:16:00
11:36 PM,65.3,64.0,96,29.91,7.0,South,3.5,-,N/A,,Clear,170,2013-06-24 03:36:00
11:56 PM,64.6,63.5,96,29.91,7.0,Calm,Calm,-,N/A,,Clear,0,2013-06-24 03:56:00